TimeCST,TemperatureF,Dew PointF,Humidity,Sea Level PressureIn,VisibilityMPH,Wind Direction,Wind SpeedMPH,Gust SpeedMPH,PrecipitationIn,Events,Conditions,WindDirDegrees,DateUTC
12:55 AM,15.1,1.9,56,30.55,10.0,SSW,11.5,-,N/A,,Clear,200,2013-12-12 06:55:00
1:55 AM,18.0,3.9,54,30.53,10.0,SSW,11.5,-,N/A,,Clear,200,2013-12-12 07:55:00
2:55 AM,17.1,5.0,59,30.52,10.0,SSW,10.4,-,N/A,,Clear,210,2013-12-12 08:55:00
3:55 AM,17.1,6.1,62,30.50,10.0,SW,6.9,-,N/A,,Clear,230,2013-12-12 09:55:00
4:55 AM,16.0,7.0,68,30.48,10.0,SW,6.9,-,N/A,,Clear,230,2013-12-12 10:55:00
5:55 AM,18.0,9.0,68,30.45,10.0,SW,9.2,-,N/A,,Clear,220,2013-12-12 11:55:00
6:55 AM,19.9,10.9,68,30.45,10.0,SW,10.4,-,N/A,,Clear,230,2013-12-12 12:55:00
7:55 AM,19.9,10.9,68,30.45,10.0,SW,11.5,-,N/A,,Clear,220,2013-12-12 13:55:00
8:55 AM,21.0,12.9,71,30.44,10.0,SW,12.7,-,N/A,,Clear,220,2013-12-12 14:55:00
9:55 AM,24.1,15.1,69,30.43,10.0,SW,10.4,-,N/A,,Clear,220,2013-12-12 15:55:00
10:55 AM,27.0,16.0,63,30.43,10.0,WSW,9.2,-,N/A,,Clear,250,2013-12-12 16:55:00
11:55 AM,30.9,19.0,61,30.39,10.0,WSW,8.1,-,N/A,,Clear,240,2013-12-12 17:55:00
12:55 PM,35.1,21.0,57,30.35,10.0,WSW,8.1,-,N/A,,Clear,240,2013-12-12 18:55:00
1:55 PM,37.9,21.9,53,30.30,10.0,South,5.8,-,N/A,,Clear,190,2013-12-12 19:55:00
2:55 PM,39.9,24.1,53,30.26,10.0,SSE,9.2,-,N/A,,Clear,160,2013-12-12 20:55:00
3:55 PM,42.1,24.1,49,30.25,10.0,South,8.1,-,N/A,,Clear,170,2013-12-12 21:55:00
4:55 PM,39.0,23.0,53,30.24,10.0,SSE,3.5,-,N/A,,Clear,160,2013-12-12 22:55:00
5:55 PM,34.0,21.9,61,30.22,10.0,Calm,Calm,-,N/A,,Clear,0,2013-12-12 23:55:00
6:55 PM,30.0,21.0,69,30.21,10.0,SE,5.8,-,N/A,,Clear,140,2013-12-13 00:55:00
7:55 PM,30.9,21.0,67,30.18,10.0,South,10.4,-,N/A,,Clear,170,2013-12-13 01:55:00
8:55 PM,34.0,21.0,59,30.14,10.0,South,15.0,-,N/A,,Clear,180,2013-12-13 02:55:00
9:55 PM,32.0,19.9,61,30.13,10.0,South,16.1,-,N/A,,Clear,180,2013-12-13 03:55:00
10:55 PM,30.0,19.9,66,30.11,10.0,South,15.0,-,N/A,,Clear,190,2013-12-13 04:55:00
11:55 PM,28.0,19.0,69,30.08,10.0,South,17.3,-,N/A,,Clear,190,2013-12-13 05:55:00